FW7746 Weather Reports


time (UTC)temp
F
wind
direction
speed
knots
gust
knots
rain 1hr
in
rain 24hr
in
rain mn
in
humidity
%
barometer
mb
20260503195104 75 319 2.6 7.8 0.00 0.00 0.00 32 1011.2
20260503194104 74 316 0.9 2.6 0.00 0.00 0.00 31 1011.6
20260503193604 74 326 1.7 2.6 0.00 0.00 0.00 30 1011.7
20260503193104 74 330 0.9 7.0 0.00 0.00 0.00 31 1011.7
20260503192604 74 335 0.9 4.3 0.00 0.00 0.00 32 1011.7
20260503191603 73 329 0.9 7.0 0.00 0.00 0.00 33 1011.9
20260503191104 73 325 1.7 5.2 0.00 0.00 0.00 33 1012.1
20260503190604 73 25 1.7 7.0 0.00 0.00 0.00 34 1012.0
20260503190104 73 326 2.6 7.0 0.00 0.00 0.00 34 1012.1
20260503185604 73 317 1.7 8.7 0.00 0.00 0.00 34 1012.1
20260503185103 73 310 0.9 2.6 0.00 0.00 0.00 36 1012.3
20260503184104 72 330 1.7 2.6 0.00 0.00 0.00 34 1012.3
20260503183604 73 314 0.9 4.3 0.00 0.00 0.00 34 1012.4
20260503183104 72 327 0.9 5.2 0.00 0.00 0.00 36 1012.5
20260503182104 72 319 0.9 2.6 0.00 0.00 0.00 35 1012.5
20260503180604 70 320 0.9 4.3 0.00 0.00 0.00 37 1012.7
20260503180104 71 321 1.7 8.7 0.00 0.00 0.00 37 1012.7
20260503175604 71 330 0.9 5.2 0.00 0.00 0.00 38 1012.6
20260503174604 70 310 0.9 2.6 0.00 0.00 0.00 38 1012.7
20260503174104 70 325 2.6 5.2 0.00 0.00 0.00 37 1012.7
20260503172104 68 331 0.9 2.6 0.00 0.00 0.00 39 1013.0
20260503171604 68 327 1.7 5.2 0.00 0.00 0.00 39 1013.0
20260503170604 68 315 0.9 2.6 0.00 0.00 0.00 39 1013.0
20260503170104 68 316 0.0 2.6 0.00 0.00 0.00 40 1013.0
20260503160104 64 342 1.7 2.6 0.00 0.00 0.00 45 1013.5
20260503150604 56 198 0.0 0.0 0.00 0.00 0.00 66 1013.7
20260503150104 55 198 0.0 0.0 0.00 0.00 0.00 68 1013.8
20260503140104 46 223 0.0 0.0 0.00 0.00 0.00 81 1013.7
20260503131103 46 242 0.0 0.0 0.00 0.00 0.00 82 1013.3
20260503130604 46 242 0.0 0.0 0.00 0.00 0.00 82 1013.3
20260503130104 46 242 0.0 0.0 0.00 0.00 0.00 82 1013.3
20260503120104 46 287 0.0 0.0 0.00 0.00 0.00 80 1013.4
20260503110604 47 288 0.0 0.0 0.00 0.00 0.00 80 1013.4
20260503110104 47 288 0.0 0.0 0.00 0.00 0.00 79 1013.4
20260503100104 49 288 0.0 0.0 0.00 0.00 0.00 76 1013.0
20260503090104 51 288 0.0 0.0 0.00 0.00 0.00 71 1013.1
20260503081604 52 288 0.0 0.0 0.00 0.00 0.00 69 1013.4
20260503080604 53 288 0.0 0.0 0.00 0.00 0.00 68 1013.2
20260503080104 53 288 0.0 0.0 0.00 0.00 0.00 67 1013.1
20260503072604 54 288 0.0 0.0 0.00 0.00 0.00 66 1012.9
20260503072104 55 288 0.0 0.0 0.00 0.00 0.00 65 1012.8
20260503071604 55 288 0.0 0.0 0.00 0.00 0.00 64 1012.7
20260503071104 55 288 0.0 0.0 0.00 0.00 0.00 65 1012.8
20260503070604 55 288 0.0 0.0 0.00 0.00 0.00 64 1012.8
20260503060104 57 288 0.0 0.0 0.00 0.01 0.00 62 1013.6
20260503054604 57 305 0.0 0.0 0.00 0.01 0.00 60 1013.5
20260503054104 57 305 0.0 0.0 0.00 0.01 0.00 59 1013.4
20260503053104 58 311 0.0 0.0 0.00 0.01 0.00 58 1013.5
20260503052604 58 329 0.0 0.0 0.00 0.01 0.00 56 1013.5
20260503052105 58 329 0.0 0.0 0.00 0.01 0.00 57 1013.5
20260503051604 58 329 0.0 0.0 0.00 0.01 0.00 55 1013.5
20260503050604 59 330 0.0 0.0 0.00 0.01 0.00 55 1013.6
20260503050105 59 330 0.0 0.0 0.00 0.01 0.00 55 1013.6
20260503045604 59 330 0.0 0.0 0.00 0.01 0.00 56 1013.5
20260503045104 59 330 0.0 0.0 0.00 0.01 0.00 54 1013.3
20260503044604 59 330 0.0 0.0 0.00 0.01 0.00 54 1013.2
20260503044104 59 330 0.0 0.0 0.00 0.01 0.00 55 1013.2
20260503043104 60 330 0.0 0.0 0.00 0.01 0.00 53 1013.1
20260503042604 60 330 0.0 0.0 0.00 0.01 0.00 52 1013.1
20260503041104 60 330 0.0 0.0 0.00 0.01 0.00 52 1012.7
20260503040604 60 330 0.0 0.0 0.00 0.01 0.00 51 1012.6
20260503040104 61 330 0.0 0.0 0.00 0.01 0.00 51 1012.5
20260503035604 61 330 0.0 0.0 0.00 0.01 0.00 51 1012.4
20260503035104 61 330 0.0 0.0 0.00 0.01 0.00 51 1012.3
20260503034604 61 330 0.0 0.0 0.00 0.01 0.00 50 1012.2
20260503033604 61 330 0.0 0.0 0.00 0.01 0.00 50 1012.3
20260503033104 61 330 0.0 0.0 0.00 0.01 0.00 50 1012.1
20260503032604 61 330 0.0 0.0 0.00 0.01 0.00 50 1012.1
20260503032105 62 330 0.0 0.0 0.00 0.01 0.00 50 1012.1
20260503031605 62 330 0.0 0.0 0.00 0.01 0.00 50 1011.9
20260503031103 62 330 0.0 0.9 0.00 0.01 0.00 50 1011.9
20260503030604 62 331 0.0 0.9 0.00 0.01 0.00 50 1011.8
20260503030105 62 331 0.0 1.7 0.00 0.01 0.00 49 1011.8
20260503025604 62 333 0.0 0.9 0.00 0.01 0.00 49 1011.8
20260503025104 62 336 0.0 1.7 0.00 0.01 0.00 49 1011.7
20260503024604 63 321 0.0 0.9 0.00 0.01 0.00 49 1011.7
20260503024104 63 321 0.9 2.6 0.00 0.01 0.00 48 1011.7
20260503023604 63 329 0.9 5.2 0.00 0.01 0.00 48 1011.6
20260503023104 63 319 1.7 8.7 0.00 0.01 0.00 47 1011.5
20260503022604 63 319 0.9 4.3 0.00 0.01 0.00 46 1011.5
20260503021604 64 326 3.5 12.2 0.00 0.01 0.00 45 1011.3
20260503021104 65 338 1.7 11.3 0.00 0.01 0.00 44 1011.2
20260503020605 65 325 0.9 4.3 0.00 0.01 0.00 43 1011.1
20260503020104 65 309 0.9 7.8 0.00 0.01 0.00 42 1010.9
20260503015605 66 327 1.7 8.7 0.00 0.01 0.00 42 1010.8
20260503015104 66 323 1.7 5.2 0.00 0.01 0.00 42 1010.7
20260503014604 66 327 2.6 7.0 0.00 0.01 0.00 42 1010.7
20260503014104 66 329 1.7 2.6 0.00 0.01 0.00 42 1010.6
20260503013604 66 331 1.7 4.3 0.00 0.01 0.00 42 1010.7
20260503013104 66 299 0.9 2.6 0.00 0.01 0.00 43 1010.6
20260503012604 66 321 0.9 2.6 0.00 0.01 0.00 43 1010.5
20260503012104 66 314 0.9 2.6 0.00 0.01 0.00 42 1010.5
20260503011604 66 296 0.0 2.6 0.00 0.01 0.00 42 1010.5
20260503010104 67 289 0.9 4.3 0.00 0.01 0.00 42 1010.4
20260503005604 67 321 1.7 4.3 0.00 0.01 0.00 42 1010.5
20260503004104 65 315 0.9 5.2 0.00 0.01 0.00 44 1010.5
20260503003604 65 324 1.7 8.7 0.00 0.01 0.00 44 1010.3
20260503003104 64 323 1.7 5.2 0.00 0.01 0.00 44 1010.4
20260503002604 64 327 1.7 4.3 0.00 0.01 0.00 45 1010.7
20260503002105 64 271 0.0 2.6 0.00 0.01 0.00 47 1010.5
20260503001104 64 347 0.9 2.6 0.00 0.01 0.00 47 1010.4
20260503000604 64 252 0.0 0.0 0.00 0.01 0.00 47 1010.4
20260503000105 64 253 0.0 1.7 0.00 0.01 0.00 46 1010.4
20260502235604 64 299 0.0 0.9 0.00 0.01 0.00 46 1010.4
20260502235105 64 299 0.0 2.6 0.00 0.01 0.00 46 1010.3
20260502234604 64 288 0.0 0.9 0.00 0.01 0.00 46 1010.4
20260502234104 64 324 0.0 2.6 0.00 0.01 0.00 46 1010.4
20260502233604 64 200 0.9 2.6 0.00 0.01 0.00 45 1010.4
20260502233104 64 158 0.0 0.0 0.00 0.01 0.00 40 1010.6
20260502232604 63 158 0.0 2.6 0.00 0.01 0.00 45 1011.1
20260502231604 64 208 0.9 7.0 0.00 0.01 0.00 44 1011.6
20260502230604 65 150 0.9 7.0 0.00 0.01 0.00 41 1011.8
20260502225604 68 131 0.9 2.6 0.00 0.01 0.00 35 1011.5
20260502224604 69 334 0.0 0.0 0.00 0.01 0.00 36 1010.7
20260502223604 69 329 0.0 2.6 0.00 0.01 0.00 36 1010.3
20260502223104 70 319 0.9 2.6 0.00 0.01 0.00 35 1010.1
20260502222604 70 311 1.7 7.8 0.00 0.01 0.00 35 1009.9
20260502222104 70 333 2.6 5.2 0.00 0.01 0.00 35 1009.9
20260502221604 70 334 0.9 4.3 0.00 0.01 0.00 35 1009.9
20260502221104 70 321 0.9 4.3 0.00 0.01 0.00 35 1010.1
20260502220604 70 320 0.9 7.0 0.00 0.01 0.00 35 1010.0
20260502220105 70 323 0.9 2.6 0.00 0.01 0.00 34 1010.1
20260502215105 70 321 0.9 4.3 0.00 0.01 0.00 33 1010.1
20260502214604 70 324 0.9 4.3 0.00 0.01 0.00 34 1010.2
20260502214104 70 324 1.7 4.3 0.00 0.01 0.00 33 1010.2
20260502213604 70 330 1.7 7.0 0.00 0.01 0.00 33 1010.2
20260502213104 70 287 0.9 2.6 0.00 0.01 0.00 34 1010.2
20260502211604 70 245 0.9 2.6 0.00 0.01 0.00 35 1010.4
20260502211104 70 317 1.7 5.2 0.00 0.01 0.00 34 1010.4
20260502210604 70 335 0.9 2.6 0.00 0.01 0.00 35 1010.3
20260502210104 69 330 0.9 7.8 0.00 0.01 0.00 34 1010.4
20260502204604 69 315 1.7 5.2 0.00 0.01 0.00 34 1010.2
20260502204104 69 329 2.6 5.2 0.00 0.01 0.00 33 1010.3
20260502203605 69 322 2.6 5.2 0.00 0.01 0.00 34 1010.4
20260502203104 69 326 0.0 2.6 0.00 0.01 0.00 34 1010.6
20260502202104 69 321 0.0 2.6 0.00 0.01 0.00 34 1010.8
20260502201604 69 322 0.9 5.2 0.00 0.01 0.00 34 1010.8
20260502201104 70 340 1.7 7.0 0.00 0.01 0.00 34 1010.8
20260502200604 70 315 1.7 4.3 0.00 0.01 0.00 34 1010.8
20260502195606 70 330 0.0 4.3 0.00 0.01 0.00 35 1010.9